<?xml version="1.0" encoding="UTF-8" standalone="no" ?>
<gpx xmlns="http://www.topografix.com/GPX/1/1" xmlns:xsi="http://www.w3.org/2001/XMLSchema-instance" xsi:schemaLocation="http://www.topografix.com/GPX/1/1 http://www.topografix.com/GPX/1/1/gpx.xsd" version="1.1" creator="VisuGPX - https://www.visugpx.com">
  <metadata>
    <name>Circuits des routoirs</name>
    <desc><![CDATA[Circuits des différents routoirs à lin du Trégor]]></desc>
  </metadata>
  <trk>
    <name><![CDATA[Circuits des routoirs_1]]></name>
    <trkseg>
      <trkpt lat="48.72478" lon="-3.32289">
        <ele>65</ele>
        <time>2016-12-15T13:46:39Z</time>
      </trkpt>
      <trkpt lat="48.72516" lon="-3.32217">
        <ele>61</ele>
        <time>2016-12-15T13:46:39Z</time>
      </trkpt>
      <trkpt lat="48.72529" lon="-3.32151">
        <ele>59</ele>
        <time>2016-12-15T13:46:39Z</time>
      </trkpt>
      <trkpt lat="48.7251" lon="-3.32087">
        <ele>58</ele>
        <time>2016-12-15T13:46:39Z</time>
      </trkpt>
      <trkpt lat="48.72484" lon="-3.32021">
        <ele>58</ele>
        <time>2016-12-15T13:46:39Z</time>
      </trkpt>
      <trkpt lat="48.72462" lon="-3.31956">
        <ele>57</ele>
        <time>2016-12-15T13:46:39Z</time>
      </trkpt>
      <trkpt lat="48.72456" lon="-3.31875">
        <ele>56</ele>
        <time>2016-12-15T13:46:39Z</time>
      </trkpt>
      <trkpt lat="48.72478" lon="-3.31805">
        <ele>55</ele>
        <time>2016-12-15T13:46:39Z</time>
      </trkpt>
      <trkpt lat="48.72505" lon="-3.31736">
        <ele>52</ele>
        <time>2016-12-15T13:46:39Z</time>
      </trkpt>
      <trkpt lat="48.72548" lon="-3.31744">
        <ele>50</ele>
        <time>2016-12-15T13:46:39Z</time>
      </trkpt>
      <trkpt lat="48.72589" lon="-3.3176">
        <ele>48</ele>
        <time>2016-12-15T13:46:39Z</time>
      </trkpt>
      <trkpt lat="48.72631" lon="-3.3178">
        <ele>46</ele>
        <time>2016-12-15T13:46:39Z</time>
      </trkpt>
      <trkpt lat="48.72674" lon="-3.31804">
        <ele>44</ele>
        <time>2016-12-15T13:46:39Z</time>
      </trkpt>
      <trkpt lat="48.7272" lon="-3.31823">
        <ele>44</ele>
        <time>2016-12-15T13:46:39Z</time>
      </trkpt>
      <trkpt lat="48.72761" lon="-3.31842">
        <ele>44</ele>
        <time>2016-12-15T13:46:39Z</time>
      </trkpt>
      <trkpt lat="48.72786" lon="-3.31792">
        <ele>43</ele>
        <time>2016-12-15T13:46:39Z</time>
      </trkpt>
      <trkpt lat="48.72812" lon="-3.31738">
        <ele>42</ele>
        <time>2016-12-15T13:46:39Z</time>
      </trkpt>
      <trkpt lat="48.72836" lon="-3.31684">
        <ele>42</ele>
        <time>2016-12-15T13:46:39Z</time>
      </trkpt>
      <trkpt lat="48.72865" lon="-3.31627">
        <ele>41</ele>
        <time>2016-12-15T13:46:39Z</time>
      </trkpt>
      <trkpt lat="48.72903" lon="-3.3164">
        <ele>40</ele>
        <time>2016-12-15T13:46:39Z</time>
      </trkpt>
      <trkpt lat="48.72942" lon="-3.3167">
        <ele>40</ele>
        <time>2016-12-15T13:46:39Z</time>
      </trkpt>
      <trkpt lat="48.72984" lon="-3.31702">
        <ele>40</ele>
        <time>2016-12-15T13:46:39Z</time>
      </trkpt>
      <trkpt lat="48.73026" lon="-3.31729">
        <ele>40</ele>
        <time>2016-12-15T13:46:39Z</time>
      </trkpt>
      <trkpt lat="48.73067" lon="-3.31758">
        <ele>41</ele>
        <time>2016-12-15T13:46:39Z</time>
      </trkpt>
      <trkpt lat="48.73111" lon="-3.31788">
        <ele>41</ele>
        <time>2016-12-15T13:46:39Z</time>
      </trkpt>
      <trkpt lat="48.73156" lon="-3.3182">
        <ele>41</ele>
        <time>2016-12-15T13:46:39Z</time>
      </trkpt>
      <trkpt lat="48.73201" lon="-3.31852">
        <ele>42</ele>
        <time>2016-12-15T13:46:39Z</time>
      </trkpt>
      <trkpt lat="48.73246" lon="-3.31884">
        <ele>42</ele>
        <time>2016-12-15T13:46:39Z</time>
      </trkpt>
      <trkpt lat="48.7329" lon="-3.31909">
        <ele>42</ele>
        <time>2016-12-15T13:46:39Z</time>
      </trkpt>
      <trkpt lat="48.73294" lon="-3.31965">
        <ele>43</ele>
        <time>2016-12-15T13:46:39Z</time>
      </trkpt>
      <trkpt lat="48.73261" lon="-3.32018">
        <ele>43</ele>
        <time>2016-12-15T13:46:39Z</time>
      </trkpt>
      <trkpt lat="48.73224" lon="-3.32061">
        <ele>44</ele>
        <time>2016-12-15T13:46:39Z</time>
      </trkpt>
      <trkpt lat="48.73235" lon="-3.32101">
        <ele>44</ele>
        <time>2016-12-15T13:46:39Z</time>
      </trkpt>
      <trkpt lat="48.73274" lon="-3.32149">
        <ele>44</ele>
        <time>2016-12-15T13:46:39Z</time>
      </trkpt>
      <trkpt lat="48.7331" lon="-3.32203">
        <ele>45</ele>
        <time>2016-12-15T13:46:39Z</time>
      </trkpt>
      <trkpt lat="48.73349" lon="-3.32243">
        <ele>47</ele>
        <time>2016-12-15T13:46:39Z</time>
      </trkpt>
      <trkpt lat="48.73388" lon="-3.32278">
        <ele>48</ele>
        <time>2016-12-15T13:46:39Z</time>
      </trkpt>
      <trkpt lat="48.73388" lon="-3.32336">
        <ele>48</ele>
        <time>2016-12-15T13:46:39Z</time>
      </trkpt>
      <trkpt lat="48.73367" lon="-3.32406">
        <ele>49</ele>
        <time>2016-12-15T13:46:39Z</time>
      </trkpt>
      <trkpt lat="48.73356" lon="-3.32475">
        <ele>50</ele>
        <time>2016-12-15T13:46:39Z</time>
      </trkpt>
      <trkpt lat="48.73395" lon="-3.32493">
        <ele>50</ele>
        <time>2016-12-15T13:46:39Z</time>
      </trkpt>
      <trkpt lat="48.73437" lon="-3.32479">
        <ele>49</ele>
        <time>2016-12-15T13:46:39Z</time>
      </trkpt>
      <trkpt lat="48.73481" lon="-3.32457">
        <ele>49</ele>
        <time>2016-12-15T13:46:39Z</time>
      </trkpt>
      <trkpt lat="48.73507" lon="-3.32507">
        <ele>48</ele>
        <time>2016-12-15T13:46:39Z</time>
      </trkpt>
      <trkpt lat="48.73531" lon="-3.32566">
        <ele>47</ele>
        <time>2016-12-15T13:46:39Z</time>
      </trkpt>
      <trkpt lat="48.73554" lon="-3.32629">
        <ele>46</ele>
        <time>2016-12-15T13:46:39Z</time>
      </trkpt>
      <trkpt lat="48.73564" lon="-3.32688">
        <ele>45</ele>
        <time>2016-12-15T13:46:39Z</time>
      </trkpt>
      <trkpt lat="48.7356" lon="-3.32756">
        <ele>45</ele>
        <time>2016-12-15T13:46:39Z</time>
      </trkpt>
      <trkpt lat="48.7354" lon="-3.32818">
        <ele>45</ele>
        <time>2016-12-15T13:46:39Z</time>
      </trkpt>
      <trkpt lat="48.73547" lon="-3.32861">
        <ele>44</ele>
        <time>2016-12-15T13:46:39Z</time>
      </trkpt>
      <trkpt lat="48.73523" lon="-3.32915">
        <ele>45</ele>
        <time>2016-12-15T13:46:39Z</time>
      </trkpt>
      <trkpt lat="48.73484" lon="-3.32957">
        <ele>48</ele>
        <time>2016-12-15T13:46:39Z</time>
      </trkpt>
      <trkpt lat="48.73457" lon="-3.33012">
        <ele>47</ele>
        <time>2016-12-15T13:46:39Z</time>
      </trkpt>
      <trkpt lat="48.73489" lon="-3.33058">
        <ele>47</ele>
        <time>2016-12-15T13:46:39Z</time>
      </trkpt>
      <trkpt lat="48.73474" lon="-3.33119">
        <ele>47</ele>
        <time>2016-12-15T13:46:39Z</time>
      </trkpt>
      <trkpt lat="48.73459" lon="-3.33181">
        <ele>46</ele>
        <time>2016-12-15T13:46:39Z</time>
      </trkpt>
      <trkpt lat="48.73442" lon="-3.33244">
        <ele>46</ele>
        <time>2016-12-15T13:46:39Z</time>
      </trkpt>
      <trkpt lat="48.73448" lon="-3.3331">
        <ele>44</ele>
        <time>2016-12-15T13:46:39Z</time>
      </trkpt>
      <trkpt lat="48.7345" lon="-3.3337">
        <ele>42</ele>
        <time>2016-12-15T13:46:39Z</time>
      </trkpt>
      <trkpt lat="48.73492" lon="-3.33383">
        <ele>42</ele>
        <time>2016-12-15T13:46:39Z</time>
      </trkpt>
      <trkpt lat="48.7352" lon="-3.33434">
        <ele>40</ele>
        <time>2016-12-15T13:46:39Z</time>
      </trkpt>
      <trkpt lat="48.73527" lon="-3.335">
        <ele>40</ele>
        <time>2016-12-15T13:46:39Z</time>
      </trkpt>
      <trkpt lat="48.73516" lon="-3.33572">
        <ele>41</ele>
        <time>2016-12-15T13:46:39Z</time>
      </trkpt>
      <trkpt lat="48.73509" lon="-3.33647">
        <ele>40</ele>
        <time>2016-12-15T13:46:39Z</time>
      </trkpt>
      <trkpt lat="48.73503" lon="-3.33698">
        <ele>38</ele>
        <time>2016-12-15T13:46:39Z</time>
      </trkpt>
      <trkpt lat="48.73501" lon="-3.33773">
        <ele>37</ele>
        <time>2016-12-15T13:46:39Z</time>
      </trkpt>
      <trkpt lat="48.73489" lon="-3.33846">
        <ele>40</ele>
        <time>2016-12-15T13:46:39Z</time>
      </trkpt>
      <trkpt lat="48.73476" lon="-3.33912">
        <ele>40</ele>
        <time>2016-12-15T13:46:39Z</time>
      </trkpt>
      <trkpt lat="48.73466" lon="-3.3398">
        <ele>40</ele>
        <time>2016-12-15T13:46:39Z</time>
      </trkpt>
      <trkpt lat="48.73459" lon="-3.34047">
        <ele>40</ele>
        <time>2016-12-15T13:46:39Z</time>
      </trkpt>
      <trkpt lat="48.7344" lon="-3.3412">
        <ele>40</ele>
        <time>2016-12-15T13:46:39Z</time>
      </trkpt>
      <trkpt lat="48.73422" lon="-3.34187">
        <ele>40</ele>
        <time>2016-12-15T13:46:39Z</time>
      </trkpt>
      <trkpt lat="48.73415" lon="-3.34253">
        <ele>42</ele>
        <time>2016-12-15T13:46:39Z</time>
      </trkpt>
      <trkpt lat="48.73386" lon="-3.34262">
        <ele>43</ele>
        <time>2016-12-15T13:46:39Z</time>
      </trkpt>
      <trkpt lat="48.73342" lon="-3.34233">
        <ele>45</ele>
        <time>2016-12-15T13:46:39Z</time>
      </trkpt>
      <trkpt lat="48.733" lon="-3.3421">
        <ele>49</ele>
        <time>2016-12-15T13:46:39Z</time>
      </trkpt>
      <trkpt lat="48.7326" lon="-3.34192">
        <ele>51</ele>
        <time>2016-12-15T13:46:39Z</time>
      </trkpt>
      <trkpt lat="48.73215" lon="-3.34177">
        <ele>54</ele>
        <time>2016-12-15T13:46:39Z</time>
      </trkpt>
      <trkpt lat="48.73175" lon="-3.34153">
        <ele>55</ele>
        <time>2016-12-15T13:46:39Z</time>
      </trkpt>
      <trkpt lat="48.73144" lon="-3.34202">
        <ele>58</ele>
        <time>2016-12-15T13:46:39Z</time>
      </trkpt>
      <trkpt lat="48.73123" lon="-3.34263">
        <ele>59</ele>
        <time>2016-12-15T13:46:39Z</time>
      </trkpt>
      <trkpt lat="48.73118" lon="-3.34319">
        <ele>58</ele>
        <time>2016-12-15T13:46:39Z</time>
      </trkpt>
      <trkpt lat="48.73152" lon="-3.3436">
        <ele>57</ele>
        <time>2016-12-15T13:46:39Z</time>
      </trkpt>
      <trkpt lat="48.73161" lon="-3.34404">
        <ele>57</ele>
        <time>2016-12-15T13:46:39Z</time>
      </trkpt>
      <trkpt lat="48.73173" lon="-3.34465">
        <ele>52</ele>
        <time>2016-12-15T13:46:39Z</time>
      </trkpt>
      <trkpt lat="48.7318" lon="-3.34529">
        <ele>49</ele>
        <time>2016-12-15T13:46:39Z</time>
      </trkpt>
      <trkpt lat="48.73212" lon="-3.34586">
        <ele>47</ele>
        <time>2016-12-15T13:46:39Z</time>
      </trkpt>
      <trkpt lat="48.73243" lon="-3.34632">
        <ele>46</ele>
        <time>2016-12-15T13:46:39Z</time>
      </trkpt>
      <trkpt lat="48.7328" lon="-3.34665">
        <ele>43</ele>
        <time>2016-12-15T13:46:39Z</time>
      </trkpt>
      <trkpt lat="48.7331" lon="-3.34704">
        <ele>41</ele>
        <time>2016-12-15T13:46:39Z</time>
      </trkpt>
      <trkpt lat="48.73306" lon="-3.34758">
        <ele>40</ele>
        <time>2016-12-15T13:46:39Z</time>
      </trkpt>
      <trkpt lat="48.73265" lon="-3.34794">
        <ele>41</ele>
        <time>2016-12-15T13:46:39Z</time>
      </trkpt>
      <trkpt lat="48.73225" lon="-3.34788">
        <ele>44</ele>
        <time>2016-12-15T13:46:39Z</time>
      </trkpt>
      <trkpt lat="48.732" lon="-3.34728">
        <ele>46</ele>
        <time>2016-12-15T13:46:39Z</time>
      </trkpt>
      <trkpt lat="48.73161" lon="-3.34699">
        <ele>49</ele>
        <time>2016-12-15T13:46:39Z</time>
      </trkpt>
      <trkpt lat="48.73121" lon="-3.34684">
        <ele>49</ele>
        <time>2016-12-15T13:46:39Z</time>
      </trkpt>
      <trkpt lat="48.73079" lon="-3.34661">
        <ele>52</ele>
        <time>2016-12-15T13:46:39Z</time>
      </trkpt>
      <trkpt lat="48.7304" lon="-3.34626">
        <ele>54</ele>
        <time>2016-12-15T13:46:39Z</time>
      </trkpt>
      <trkpt lat="48.73" lon="-3.34605">
        <ele>58</ele>
        <time>2016-12-15T13:46:39Z</time>
      </trkpt>
      <trkpt lat="48.72962" lon="-3.34574">
        <ele>60</ele>
        <time>2016-12-15T13:46:39Z</time>
      </trkpt>
      <trkpt lat="48.72927" lon="-3.34534">
        <ele>61</ele>
        <time>2016-12-15T13:46:39Z</time>
      </trkpt>
      <trkpt lat="48.7289" lon="-3.34483">
        <ele>65</ele>
        <time>2016-12-15T13:46:39Z</time>
      </trkpt>
      <trkpt lat="48.72905" lon="-3.34421">
        <ele>65</ele>
        <time>2016-12-15T13:46:39Z</time>
      </trkpt>
      <trkpt lat="48.72924" lon="-3.34357">
        <ele>64</ele>
        <time>2016-12-15T13:46:39Z</time>
      </trkpt>
      <trkpt lat="48.72947" lon="-3.34293">
        <ele>65</ele>
        <time>2016-12-15T13:46:39Z</time>
      </trkpt>
      <trkpt lat="48.72968" lon="-3.34228">
        <ele>65</ele>
        <time>2016-12-15T13:46:39Z</time>
      </trkpt>
      <trkpt lat="48.72984" lon="-3.34159">
        <ele>64</ele>
        <time>2016-12-15T13:46:39Z</time>
      </trkpt>
      <trkpt lat="48.73012" lon="-3.34099">
        <ele>61</ele>
        <time>2016-12-15T13:46:39Z</time>
      </trkpt>
      <trkpt lat="48.73032" lon="-3.34045">
        <ele>60</ele>
        <time>2016-12-15T13:46:39Z</time>
      </trkpt>
      <trkpt lat="48.73058" lon="-3.33984">
        <ele>59</ele>
        <time>2016-12-15T13:46:39Z</time>
      </trkpt>
      <trkpt lat="48.73081" lon="-3.33924">
        <ele>58</ele>
        <time>2016-12-15T13:46:39Z</time>
      </trkpt>
      <trkpt lat="48.73099" lon="-3.33872">
        <ele>57</ele>
        <time>2016-12-15T13:46:39Z</time>
      </trkpt>
      <trkpt lat="48.73096" lon="-3.33807">
        <ele>57</ele>
        <time>2016-12-15T13:46:39Z</time>
      </trkpt>
      <trkpt lat="48.73058" lon="-3.33814">
        <ele>61</ele>
        <time>2016-12-15T13:46:39Z</time>
      </trkpt>
      <trkpt lat="48.73063" lon="-3.33752">
        <ele>61</ele>
        <time>2016-12-15T13:46:39Z</time>
      </trkpt>
      <trkpt lat="48.73075" lon="-3.33687">
        <ele>61</ele>
        <time>2016-12-15T13:46:39Z</time>
      </trkpt>
      <trkpt lat="48.73047" lon="-3.33651">
        <ele>62</ele>
        <time>2016-12-15T13:46:39Z</time>
      </trkpt>
      <trkpt lat="48.73007" lon="-3.33626">
        <ele>64</ele>
        <time>2016-12-15T13:46:39Z</time>
      </trkpt>
      <trkpt lat="48.72959" lon="-3.33602">
        <ele>71</ele>
        <time>2016-12-15T13:46:39Z</time>
      </trkpt>
      <trkpt lat="48.72915" lon="-3.33576">
        <ele>77</ele>
        <time>2016-12-15T13:46:39Z</time>
      </trkpt>
      <trkpt lat="48.72887" lon="-3.33527">
        <ele>78</ele>
        <time>2016-12-15T13:46:39Z</time>
      </trkpt>
      <trkpt lat="48.72874" lon="-3.33463">
        <ele>79</ele>
        <time>2016-12-15T13:46:39Z</time>
      </trkpt>
      <trkpt lat="48.72871" lon="-3.33396">
        <ele>78</ele>
        <time>2016-12-15T13:46:39Z</time>
      </trkpt>
      <trkpt lat="48.7287" lon="-3.33324">
        <ele>75</ele>
        <time>2016-12-15T13:46:39Z</time>
      </trkpt>
      <trkpt lat="48.7284" lon="-3.3328">
        <ele>75</ele>
        <time>2016-12-15T13:46:39Z</time>
      </trkpt>
      <trkpt lat="48.72798" lon="-3.33256">
        <ele>78</ele>
        <time>2016-12-15T13:46:39Z</time>
      </trkpt>
      <trkpt lat="48.72755" lon="-3.3323">
        <ele>78</ele>
        <time>2016-12-15T13:46:39Z</time>
      </trkpt>
      <trkpt lat="48.72712" lon="-3.33209">
        <ele>78</ele>
        <time>2016-12-15T13:46:39Z</time>
      </trkpt>
      <trkpt lat="48.72669" lon="-3.33186">
        <ele>78</ele>
        <time>2016-12-15T13:46:39Z</time>
      </trkpt>
      <trkpt lat="48.72628" lon="-3.33162">
        <ele>76</ele>
        <time>2016-12-15T13:46:39Z</time>
      </trkpt>
      <trkpt lat="48.72602" lon="-3.33215">
        <ele>79</ele>
        <time>2016-12-15T13:46:39Z</time>
      </trkpt>
      <trkpt lat="48.72578" lon="-3.33251">
        <ele>80</ele>
        <time>2016-12-15T13:46:39Z</time>
      </trkpt>
      <trkpt lat="48.72554" lon="-3.33196">
        <ele>79</ele>
        <time>2016-12-15T13:46:39Z</time>
      </trkpt>
      <trkpt lat="48.7253" lon="-3.33133">
        <ele>77</ele>
        <time>2016-12-15T13:46:39Z</time>
      </trkpt>
      <trkpt lat="48.72504" lon="-3.33075">
        <ele>75</ele>
        <time>2016-12-15T13:46:39Z</time>
      </trkpt>
      <trkpt lat="48.72477" lon="-3.33016">
        <ele>75</ele>
        <time>2016-12-15T13:46:39Z</time>
      </trkpt>
      <trkpt lat="48.7246" lon="-3.32949">
        <ele>74</ele>
        <time>2016-12-15T13:46:39Z</time>
      </trkpt>
      <trkpt lat="48.72454" lon="-3.32874">
        <ele>74</ele>
        <time>2016-12-15T13:46:39Z</time>
      </trkpt>
      <trkpt lat="48.72443" lon="-3.32805">
        <ele>72</ele>
        <time>2016-12-15T13:46:39Z</time>
      </trkpt>
      <trkpt lat="48.72419" lon="-3.32742">
        <ele>71</ele>
        <time>2016-12-15T13:46:39Z</time>
      </trkpt>
      <trkpt lat="48.72406" lon="-3.32674">
        <ele>71</ele>
        <time>2016-12-15T13:46:39Z</time>
      </trkpt>
      <trkpt lat="48.72399" lon="-3.32603">
        <ele>69</ele>
        <time>2016-12-15T13:46:39Z</time>
      </trkpt>
      <trkpt lat="48.72391" lon="-3.32535">
        <ele>68</ele>
        <time>2016-12-15T13:46:39Z</time>
      </trkpt>
      <trkpt lat="48.72379" lon="-3.32468">
        <ele>67</ele>
        <time>2016-12-15T13:46:39Z</time>
      </trkpt>
      <trkpt lat="48.72367" lon="-3.32399">
        <ele>67</ele>
        <time>2016-12-15T13:46:39Z</time>
      </trkpt>
      <trkpt lat="48.72364" lon="-3.32327">
        <ele>68</ele>
        <time>2016-12-15T13:46:39Z</time>
      </trkpt>
      <trkpt lat="48.72381" lon="-3.32274">
        <ele>68</ele>
        <time>2016-12-15T13:46:39Z</time>
      </trkpt>
      <trkpt lat="48.72425" lon="-3.3228">
        <ele>66</ele>
        <time>2016-12-15T13:46:39Z</time>
      </trkpt>
      <trkpt lat="48.72437" lon="-3.32279">
        <ele>66</ele>
        <time>2016-12-15T13:46:39Z</time>
      </trkpt>
      <trkpt lat="48.72439" lon="-3.32277">
        <ele>66</ele>
        <time>2016-12-15T13:46:39Z</time>
      </trkpt>
      <trkpt lat="48.72441" lon="-3.32276">
        <ele>65</ele>
        <time>2016-12-15T13:46:39Z</time>
      </trkpt>
      <trkpt lat="48.72443" lon="-3.32275">
        <ele>65</ele>
        <time>2016-12-15T13:46:39Z</time>
      </trkpt>
      <trkpt lat="48.72445" lon="-3.32274">
        <ele>65</ele>
        <time>2016-12-15T13:46:39Z</time>
      </trkpt>
      <trkpt lat="48.72447" lon="-3.32274">
        <ele>65</ele>
        <time>2016-12-15T13:46:39Z</time>
      </trkpt>
      <trkpt lat="48.72449" lon="-3.32274">
        <ele>65</ele>
        <time>2016-12-15T13:46:39Z</time>
      </trkpt>
      <trkpt lat="48.72451" lon="-3.32274">
        <ele>65</ele>
        <time>2016-12-15T13:46:39Z</time>
      </trkpt>
      <trkpt lat="48.72453" lon="-3.32273">
        <ele>65</ele>
        <time>2016-12-15T13:46:39Z</time>
      </trkpt>
      <trkpt lat="48.72455" lon="-3.32273">
        <ele>65</ele>
        <time>2016-12-15T13:46:39Z</time>
      </trkpt>
      <trkpt lat="48.72457" lon="-3.32273">
        <ele>65</ele>
        <time>2016-12-15T13:46:39Z</time>
      </trkpt>
      <trkpt lat="48.72459" lon="-3.32273">
        <ele>65</ele>
        <time>2016-12-15T13:46:39Z</time>
      </trkpt>
      <trkpt lat="48.72461" lon="-3.32273">
        <ele>65</ele>
        <time>2016-12-15T13:46:39Z</time>
      </trkpt>
      <trkpt lat="48.72463" lon="-3.32274">
        <ele>65</ele>
        <time>2016-12-15T13:46:39Z</time>
      </trkpt>
      <trkpt lat="48.72464" lon="-3.32276">
        <ele>65</ele>
        <time>2016-12-15T13:46:39Z</time>
      </trkpt>
      <trkpt lat="48.72465" lon="-3.32278">
        <ele>65</ele>
        <time>2016-12-15T13:46:39Z</time>
      </trkpt>
      <trkpt lat="48.72466" lon="-3.3228">
        <ele>65</ele>
        <time>2016-12-15T13:46:39Z</time>
      </trkpt>
      <trkpt lat="48.72466" lon="-3.32283">
        <ele>65</ele>
        <time>2016-12-15T13:46:39Z</time>
      </trkpt>
      <trkpt lat="48.72467" lon="-3.32285">
        <ele>65</ele>
        <time>2016-12-15T13:46:39Z</time>
      </trkpt>
      <trkpt lat="48.72467" lon="-3.32287">
        <ele>65</ele>
        <time>2016-12-15T13:46:39Z</time>
      </trkpt>
      <trkpt lat="48.72469" lon="-3.32289">
        <ele>65</ele>
        <time>2016-12-15T13:46:39Z</time>
      </trkpt>
      <trkpt lat="48.7247" lon="-3.32291">
        <ele>65</ele>
        <time>2016-12-15T13:46:39Z</time>
      </trkpt>
      <trkpt lat="48.72471" lon="-3.32291">
        <ele>65</ele>
        <time>2016-12-15T13:46:39Z</time>
      </trkpt>
    </trkseg>
  </trk>
</gpx>